FW0960 Weather Reports


time (UTC)temp
F
wind
direction
speed
knots
gust
knots
rain 1hr
in
rain 24hr
in
rain mn
in
humidity
%
barometer
mb
20211027185601 64 194 3.5 12.2 0.00 0.01 0.01 75 1005.6
20211027185101 64 178 4.3 8.7 0.00 0.01 0.01 76 1005.6
20211027184607 64 188 4.3 9.6 0.00 0.01 0.01 76 1005.6
20211027184100 64 217 3.5 9.6 0.00 0.01 0.01 76 1005.5
20211027183559 64 202 3.5 10.4 0.00 0.01 0.01 76 1005.6
20211027183100 64 214 3.5 10.4 0.00 0.01 0.01 77 1005.5
20211027182607 64 195 4.3 12.2 0.00 0.01 0.01 77 1005.6
20211027182057 64 277 5.2 13.9 0.00 0.01 0.01 75 1005.6
20211027181604 64 200 4.3 13.9 0.00 0.01 0.01 76 1005.5
20211027181113 64 224 5.2 12.2 0.00 0.01 0.01 75 1005.7
20211027180555 64 197 4.3 12.2 0.00 0.01 0.01 76 1005.5
20211027180055 64 215 2.6 9.6 0.00 0.01 0.01 76 1005.5
20211027175555 64 225 2.6 9.6 0.00 0.01 0.01 76 1005.5
20211027175053 64 203 2.6 8.7 0.00 0.01 0.01 76 1005.4
20211027174556 64 213 4.3 10.4 0.00 0.01 0.01 77 1005.3
20211027173550 64 209 5.2 16.5 0.00 0.01 0.01 75 1005.3
20211027173042 64 171 4.3 15.6 0.00 0.01 0.01 77 1005.2
20211027172545 64 189 4.3 13.9 0.00 0.01 0.01 77 1005.3
20211027172041 64 201 5.2 14.8 0.00 0.01 0.01 77 1005.3
20211027171539 64 198 4.3 14.8 0.00 0.01 0.01 76 1005.4
20211027171039 64 200 4.3 13.9 0.00 0.01 0.01 78 1005.2
20211027170539 64 217 4.3 13.9 0.00 0.01 0.01 77 1005.3
20211027170034 64 198 5.2 12.2 0.00 0.01 0.01 77 1005.4
20211027165533 64 171 5.2 12.2 0.00 0.01 0.01 77 1005.3
20211027165034 64 195 3.5 9.6 0.00 0.01 0.01 78 1005.3
20211027164533 63 234 4.3 11.3 0.00 0.01 0.01 77 1005.2
20211027164032 63 171 4.3 15.6 0.00 0.01 0.01 78 1005.2
20211027163531 63 197 4.3 15.6 0.00 0.01 0.01 78 1005.1
20211027162529 63 175 5.2 9.6 0.00 0.01 0.01 78 1005.1
20211027162029 63 209 5.2 14.8 0.00 0.01 0.01 78 1005.1
20211027161530 63 205 5.2 14.8 0.00 0.01 0.01 78 1005.2
20211027161032 63 196 6.1 11.3 0.00 0.01 0.01 78 1005.1
20211027160532 63 240 7.0 13.0 0.00 0.01 0.01 78 1005.0
20211027160029 63 206 6.1 13.0 0.00 0.01 0.01 78 1004.9
20211027155529 63 208 5.2 12.2 0.00 0.01 0.01 78 1004.9
20211027155032 63 169 5.2 12.2 0.00 0.01 0.01 79 1005.0
20211027154531 63 229 5.2 14.8 0.00 0.01 0.01 79 1004.9
20211027154029 62 245 4.3 14.8 0.00 0.01 0.01 79 1004.9
20211027153529 62 217 4.3 11.3 0.00 0.01 0.01 80 1004.9
20211027153029 62 223 5.2 12.2 0.00 0.01 0.01 80 1004.9
20211027152029 62 214 5.2 13.9 0.00 0.01 0.01 80 1004.8
20211027151532 62 208 5.2 13.9 0.00 0.01 0.01 81 1004.7
20211027151029 62 213 5.2 10.4 0.00 0.01 0.01 82 1004.6
20211027150532 61 201 5.2 13.0 0.00 0.01 0.01 82 1004.7
20211027150029 61 229 4.3 13.0 0.00 0.01 0.01 82 1004.6
20211027145530 61 236 4.3 10.4 0.00 0.01 0.01 83 1004.4
20211027145030 60 164 3.5 10.4 0.00 0.01 0.01 83 1004.4
20211027144528 60 215 3.5 9.6 0.00 0.01 0.01 84 1004.4
20211027144030 60 217 3.5 9.6 0.00 0.01 0.01 85 1004.3
20211027143531 60 215 3.5 9.6 0.00 0.01 0.01 85 1004.3
20211027143035 59 209 3.5 9.6 0.00 0.01 0.01 86 1004.2
20211027142524 59 213 2.6 7.8 0.00 0.01 0.01 86 1004.1
20211027142024 59 202 2.6 8.7 0.00 0.01 0.01 87 1004.1
20211027141525 58 213 2.6 8.7 0.00 0.01 0.01 87 1004.1
20211027141024 58 198 2.6 7.8 0.00 0.01 0.01 87 1004.1
20211027140529 58 238 3.5 7.8 0.00 0.01 0.01 87 1004.0
20211027140026 58 223 3.5 9.6 0.00 0.01 0.01 88 1004.0
20211027135521 58 236 4.3 9.6 0.00 0.01 0.01 88 1003.9
20211027135024 58 202 4.3 9.6 0.00 0.01 0.01 88 1003.9
20211027134520 57 171 4.3 9.6 0.00 0.01 0.01 88 1004.0
20211027134024 57 199 3.5 10.4 0.00 0.01 0.01 89 1003.9
20211027133523 57 181 2.6 10.4 0.00 0.02 0.01 89 1003.9
20211027133022 57 219 2.6 9.6 0.00 0.02 0.01 89 1003.8
20211027132522 57 117 2.6 10.4 0.00 0.02 0.01 89 1003.7
20211027132017 57 190 3.5 10.4 0.00 0.02 0.01 89 1003.5
20211027131014 57 120 3.5 9.6 0.00 0.02 0.01 91 1003.6
20211027130514 56 223 3.5 9.6 0.00 0.02 0.01 91 1003.6
20211027130013 56 206 3.5 7.8 0.00 0.02 0.01 91 1003.5
20211027125511 56 205 2.6 7.0 0.00 0.02 0.01 92 1003.6
20211027125009 56 261 2.6 8.7 0.00 0.02 0.01 92 1003.5
20211027124510 55 177 2.6 8.7 0.00 0.02 0.01 93 1003.5
20211027124008 55 207 1.7 7.0 0.00 0.02 0.01 93 1003.5
20211027123508 55 288 1.7 7.0 0.00 0.02 0.01 94 1003.5
20211027122507 55 169 1.7 6.1 0.00 0.02 0.01 94 1003.5
20211027122006 54 186 1.7 4.3 0.00 0.02 0.01 94 1003.3
20211027121004 54 92 1.7 7.8 0.00 0.02 0.01 94 1003.3
20211027120504 54 212 1.7 6.1 0.00 0.02 0.01 95 1003.2
20211027115500 54 192 0.9 4.3 0.00 0.02 0.01 95 1003.1
20211027114501 54 144 1.7 5.2 0.00 0.02 0.01 95 1002.9
20211027114001 54 217 2.6 5.2 0.00 0.02 0.01 95 1002.9
20211027113502 53 184 1.7 5.2 0.00 0.02 0.01 96 1003.0
20211027113002 53 177 0.9 6.1 0.00 0.02 0.01 96 1002.9
20211027112503 53 136 1.7 6.1 0.00 0.02 0.01 96 1002.9
20211027111958 53 206 1.7 8.7 0.00 0.02 0.01 96 1002.8
20211027111458 53 205 1.7 8.7 0.00 0.02 0.01 96 1002.8
20211027111001 53 161 1.7 6.1 0.00 0.02 0.01 96 1002.8
20211027110500 53 215 1.7 6.1 0.00 0.02 0.01 96 1002.8
20211027105955 53 192 1.7 7.8 0.00 0.02 0.01 96 1002.7
20211027105459 53 234 1.7 7.8 0.00 0.02 0.01 96 1002.8
20211027104953 53 204 1.7 7.0 0.00 0.02 0.01 96 1002.7
20211027103959 52 116 0.9 4.3 0.00 0.02 0.01 96 1002.5
20211027102454 52 215 1.7 5.2 0.01 0.02 0.01 96 1002.5
20211027101950 52 197 0.9 3.5 0.01 0.02 0.01 96 1002.5
20211027101449 52 135 0.9 3.5 0.01 0.02 0.01 96 1002.5
20211027100447 52 192 1.7 6.1 0.01 0.02 0.01 96 1002.4
20211027095944 52 184 0.9 4.3 0.01 0.02 0.01 96 1002.4
20211027094938 51 192 0.9 3.5 0.01 0.02 0.01 96 1002.3
20211027094440 51 171 0.9 4.3 0.01 0.02 0.01 96 1002.3
20211027093936 51 199 0.9 4.3 0.01 0.03 0.01 96 1002.3
20211027093436 51 123 1.7 5.2 0.00 0.02 0.00 96 1002.4
20211027091433 51 182 1.7 6.1 0.00 0.02 0.00 96 1002.1
20211027090932 51 202 1.7 4.3 0.00 0.02 0.00 96 1002.1
20211027085931 51 104 0.9 7.0 0.00 0.02 0.00 95 1002.1
20211027085432 51 200 0.9 7.0 0.00 0.02 0.00 95 1002.2
20211027084929 51 219 0.9 5.2 0.00 0.03 0.00 95 1002.1
20211027084430 51 163 1.7 7.8 0.00 0.03 0.00 95 1002.0
20211027083430 50 188 1.7 4.3 0.00 0.04 0.00 95 1002.1
20211027082930 50 211 1.7 6.1 0.00 0.05 0.00 95 1001.9
20211027081918 50 219 1.7 7.8 0.00 0.05 0.00 94 1001.8
20211027080916 50 92 0.9 5.2 0.00 0.06 0.00 94 1001.7
20211027075416 50 218 1.7 8.7 0.00 0.06 0.00 92 1001.6
20211027074916 51 202 1.7 8.7 0.00 0.07 0.00 91 1001.6
20211027073913 51 131 2.6 8.7 0.00 0.07 0.00 90 1001.5
20211027073415 51 200 1.7 7.8 0.00 0.08 0.00 90 1001.4
20211027072916 51 223 1.7 7.8 0.00 0.09 0.00 89 1001.4
20211027072414 51 232 2.6 8.7 0.00 0.09 0.00 87 1001.4
20211027071416 51 167 2.6 7.8 0.00 0.12 0.00 86 1001.3
20211027070915 51 204 3.5 7.8 0.00 0.13 0.00 85 1001.2
20211027070413 52 99 3.5 9.6 0.00 0.14 0.00 84 1001.2
20211027065914 52 157 3.5 9.6 0.00 0.15 0.00 84 1001.2
20211027065414 52 211 2.6 9.6 0.00 0.15 0.00 83 1001.1
20211027064919 52 208 2.6 9.6 0.00 0.16 0.00 83 1001.1
20211027064410 52 221 1.7 9.6 0.00 0.17 0.00 83 1001.0
20211027063912 52 169 3.5 9.6 0.00 0.19 0.00 83 1000.8
20211027063409 52 200 4.3 14.8 0.00 0.22 0.00 82 1000.8
20211027062910 52 223 4.3 14.8 0.00 0.24 0.00 81 1000.8
20211027062410 52 195 3.5 14.8 0.00 0.27 0.00 81 1000.7
20211027061916 52 208 2.6 7.8 0.00 0.34 0.00 81 1000.7
20211027060908 52 213 1.7 6.1 0.00 0.46 0.00 80 1000.7
20211027060413 52 194 1.7 6.1 0.00 0.50 0.00 80 1000.6
20211027055405 52 178 3.5 7.8 0.00 0.59 0.00 81 1000.7
20211027054907 52 238 2.6 7.8 0.00 0.61 0.00 80 1000.6
20211027054404 52 223 1.7 8.7 0.00 0.63 0.00 80 1000.6
20211027053905 52 87 1.7 8.7 0.00 0.67 0.00 80 1000.7
20211027053405 52 133 1.7 10.4 0.00 0.67 0.00 80 1000.5
20211027052904 52 192 3.5 10.4 0.00 0.70 0.00 79 1000.5
20211027052401 52 180 3.5 10.4 0.00 0.76 0.00 79 1000.5
20211027051903 52 197 3.5 9.6 0.00 0.79 0.00 79 1000.6
20211027051402 52 233 2.6 7.8 0.00 0.81 0.00 78 1000.6
20211027050403 52 105 2.6 9.6 0.00 0.83 0.00 79 1000.6
20211027045905 52 203 3.5 9.6 0.00 0.87 0.00 78 1000.5
20211027044854 52 205 2.6 9.6 0.00 0.94 0.00 77 1000.5
20211027044355 52 190 2.6 13.0 0.00 0.94 0.00 77 1000.7
20211027043853 52 198 3.5 13.0 0.00 0.94 0.00 77 1000.5
20211027043353 52 224 3.5 16.5 0.00 0.94 0.00 77 1000.6
20211027042356 52 186 2.6 8.7 0.00 0.94 0.00 77 1000.6
20211027041851 52 184 2.6 8.7 0.00 0.94 0.00 77 1000.5
20211027035852 52 111 2.6 12.2 0.00 0.95 0.95 77 1000.4
20211027035351 52 187 2.6 13.9 0.00 0.95 0.95 77 1000.5
20211027034854 52 145 3.5 13.9 0.00 0.95 0.95 76 1000.5
20211027034347 52 227 2.6 9.6 0.00 0.95 0.95 76 1000.5
20211027033853 53 194 3.5 11.3 0.00 0.95 0.95 77 1000.4
20211027032845 53 148 2.6 10.4 0.00 0.95 0.95 77 1000.6
20211027032345 53 252 1.7 11.3 0.00 0.95 0.95 76 1000.7
20211027031850 53 187 2.6 11.3 0.00 0.95 0.95 76 1000.7
20211027030340 53 226 1.7 7.0 0.00 0.95 0.95 76 1001.0
20211027025839 53 177 1.7 9.6 0.00 0.95 0.95 76 1000.8
20211027024842 53 178 2.6 9.6 0.00 0.95 0.95 77 1000.9
20211027023838 53 227 2.6 11.3 0.00 0.95 0.95 76 1000.8
20211027023338 53 197 2.6 11.3 0.00 0.95 0.95 76 1001.0
20211027022837 53 224 1.7 10.4 0.00 0.95 0.95 76 1000.9
20211027022342 53 98 1.7 12.2 0.00 0.95 0.95 77 1000.8
20211027021837 53 236 2.6 12.2 0.00 0.95 0.95 77 1000.9
20211027021341 53 188 1.7 10.4 0.00 0.95 0.95 78 1001.0
20211027020834 53 178 1.7 10.4 0.00 0.95 0.95 78 1001.0
20211027020335 53 94 0.9 7.8 0.00 0.95 0.95 79 1000.9
20211027015335 53 199 0.9 8.7 0.00 0.95 0.95 80 1001.1
20211027014832 53 169 1.7 11.3 0.00 0.95 0.95 80 1001.2
20211027014331 52 97 1.7 11.3 0.00 0.95 0.95 80 1001.1
20211027013833 52 126 0.9 7.0 0.00 0.95 0.95 80 1001.2
20211027013332 53 196 0.9 7.0 0.00 0.95 0.95 81 1001.2
20211027012837 53 217 0.9 7.0 0.00 0.95 0.95 80 1001.3
20211027012332 53 121 1.7 7.0 0.00 0.95 0.95 80 1001.2
20211027011834 53 198 1.7 7.0 0.00 0.95 0.95 79 1001.2
20211027011329 53 223 1.7 7.0 0.00 0.95 0.95 78 1001.2
20211027010835 54 133 1.7 9.6 0.00 0.95 0.95 77 1001.1
20211027010337 54 218 2.6 9.6 0.00 0.95 0.95 76 1001.1
20211027005828 54 81 2.6 8.7 0.00 0.95 0.95 77 1001.3
20211027005329 54 165 2.6 11.3 0.00 0.95 0.95 76 1001.0
20211027004829 54 167 3.5 11.3 0.00 0.95 0.95 76 1001.1
20211027004330 54 219 2.6 9.6 0.00 0.95 0.95 76 1001.1
20211027003828 54 209 1.7 7.8 0.00 0.95 0.95 75 1001.1
20211027003332 54 112 2.6 8.7 0.00 0.95 0.95 75 1001.1
20211027002829 55 197 2.6 12.2 0.00 0.95 0.95 75 1000.9
20211027002331 55 125 3.5 12.2 0.00 0.95 0.95 75 1000.9
20211027001831 55 150 3.5 10.4 0.00 0.95 0.95 75 1000.9
20211027001330 55 206 3.5 11.3 0.00 0.95 0.95 75 1000.9
20211027000332 55 209 2.6 8.7 0.00 0.95 0.95 75 1000.8
20211026235830 55 224 2.6 7.8 0.00 0.95 0.95 75 1000.8
20211026235328 55 195 2.6 12.2 0.00 0.95 0.95 75 1000.9
20211026234329 55 236 2.6 8.7 0.00 0.95 0.95 75 1000.8
20211026233832 55 223 2.6 8.7 0.00 0.95 0.95 75 1000.8
20211026233330 55 99 2.6 11.3 0.00 0.95 0.95 75 1000.7
20211026232829 55 97 1.7 11.3 0.00 0.95 0.95 75 1000.6
20211026232332 55 141 1.7 8.7 0.00 0.96 0.95 76 1000.6
20211026231830 55 168 1.7 7.8 0.00 0.99 0.95 75 1000.6
20211026231329 56 126 2.6 10.4 0.00 0.99 0.95 75 1000.5
20211026230815 56 113 2.6 10.4 0.00 0.99 0.95 74 1000.7
20211026230311 56 203 2.6 9.6 0.00 0.99 0.95 75 1000.6
20211026225810 56 213 2.6 9.6 0.00 0.99 0.95 75 1000.8
20211026225305 56 133 3.5 15.6 0.00 0.99 0.95 74 1000.6
20211026224755 56 250 3.5 15.6 0.00 0.99 0.95 74 1000.5
20211026224258 56 90 3.5 14.8 0.00 0.99 0.95 75 1000.5
20211026223752 57 111 3.5 14.8 0.00 0.99 0.95 73 1000.3
20211026223253 57 105 2.6 14.8 0.00 0.99 0.95 75 1000.3
20211026222755 57 155 1.7 10.4 0.00 0.99 0.95 74 1000.2
20211026222253 57 152 2.6 13.9 0.00 0.99 0.95 74 1000.1
20211026221756 57 209 3.5 13.9 0.00 0.99 0.95 73 1000.1
20211026221254 57 128 2.6 13.9 0.00 0.99 0.95 73 1000.1
20211026220749 57 223 2.6 13.9 0.00 0.99 0.95 73 999.9
20211026220251 58 107 3.5 12.2 0.00 0.99 0.95 73 999.9
20211026215749 58 184 4.3 13.9 0.00 0.99 0.95 73 999.8
20211026215249 58 133 3.5 13.9 0.00 0.99 0.95 73 999.7
20211026214749 58 83 2.6 13.9 0.00 0.99 0.95 74 999.6
20211026214245 58 209 3.5 15.6 0.00 0.99 0.95 74 999.6
20211026213747 58 148 4.3 15.6 0.00 0.99 0.95 73 999.4
20211026213247 58 212 3.5 13.9 0.00 0.99 0.95 73 999.4
20211026212745 59 181 3.5 14.8 0.00 0.99 0.95 73 999.2
20211026212246 59 200 4.3 14.8 0.00 0.99 0.95 74 999.1
20211026211749 59 172 4.3 12.2 0.00 0.99 0.95 73 999.1
20211026211243 60 115 3.5 12.2 0.00 0.99 0.95 73 999.1
20211026210748 60 222 3.5 12.2 0.00 0.99 0.95 73 999.0
20211026210244 60 129 1.7 10.4 0.00 0.99 0.95 74 998.8
20211026205740 60 159 1.7 8.7 0.00 0.99 0.95 74 998.7
20211026205244 60 131 3.5 9.6 0.00 0.99 0.95 73 998.6
20211026204744 61 157 4.3 13.9 0.00 0.99 0.95 72 998.4
20211026204244 61 211 5.2 13.9 0.00 0.99 0.95 72 998.2
20211026203740 62 209 3.5 11.3 0.00 0.99 0.95 72 998.3
20211026203240 62 166 3.5 11.3 0.00 0.99 0.95 72 998.1
20211026202738 63 147 3.5 13.9 0.00 0.99 0.95 71 998.0
20211026202234 63 95 1.7 13.0 0.00 0.99 0.95 71 998.0
20211026201738 64 271 1.7 13.0 0.00 0.99 0.95 74 997.7
20211026200232 64 200 2.6 10.4 0.00 0.99 0.95 72 997.6
20211026195232 65 103 3.5 10.4 0.00 0.99 0.95 72 997.5
20211026194729 65 91 3.5 10.4 0.00 0.99 0.95 73 997.6
20211026194231 65 239 3.5 10.4 0.00 0.99 0.95 74 997.4
20211026193729 65 96 3.5 10.4 0.00 0.99 0.95 74 997.3
20211026192729 66 192 2.6 7.8 0.00 0.99 0.95 76 997.1
20211026192232 65 122 1.7 7.8 0.00 0.99 0.95 78 997.2
20211026191732 65 166 2.6 8.7 0.00 0.99 0.95 78 997.1
20211026191230 65 215 2.6 10.4 0.00 0.99 0.95 77 997.1
20211026190228 66 173 1.7 6.1 0.00 0.99 0.95 77 997.1